When you browse on this site, cookies collect data to enhance your experience and personalize the content and advertising you see.
Visit our Privacy Policy to learn more. By continuing to use the site, you agree to this use of cookies and data.
  • în România
  • Lista ţărilor
  • Pe 7 zile
  • Temperatura apei
  • Meteo pe hartă
  • Widget-uri
  • user-avatar
    Intrare

    Meteo pe oră la Folkern

    Astăzi, 11 Decembrie, Miercuri

    Timp Temperatura Precipitaţii Vânt Presiune Umiditate
    00:00 +3°C° 0 mm 17 m/s 738 mmHg 60%
    01:00 +3°C° 0.3 mm 17 m/s 738 mmHg 62%
    02:00 +3°C° 0.3 mm 17 m/s 738 mmHg 64%
    03:00 +2°C° 0.3 mm 17 m/s 738 mmHg 67%
    04:00 +2°C° 0.4 mm 16 m/s 738 mmHg 66%
    05:00 +2°C° 0.4 mm 16 m/s 738 mmHg 66%
    06:00 +2°C° 0 mm 16 m/s 737 mmHg 66%
    07:00 +2°C° 0.2 mm 16 m/s 737 mmHg 65%
    08:00 +2°C° 0.2 mm 17 m/s 737 mmHg 65%
    09:00 +2°C° 0.2 mm 17 m/s 738 mmHg 64%
    10:00 +2°C° 0.4 mm 17 m/s 738 mmHg 64%
    11:00 +3°C° 0.4 mm 18 m/s 738 mmHg 64%
    12:00 +3°C° 0.4 mm 18 m/s 738 mmHg 64%
    13:00 +3°C° 0.3 mm 18 m/s 738 mmHg 65%
    14:00 +3°C° 0.3 mm 19 m/s 738 mmHg 65%
    15:00 +2°C° 0.3 mm 19 m/s 738 mmHg 66%
    16:00 +2°C° 0.2 mm 18 m/s 738 mmHg 66%
    17:00 +2°C° 0.2 mm 18 m/s 739 mmHg 66%
    18:00 +2°C° 0.2 mm 18 m/s 739 mmHg 66%
    19:00 +2°C° 0.1 mm 17 m/s 740 mmHg 66%
    20:00 +2°C° 0.1 mm 16 m/s 740 mmHg 66%
    21:00 +2°C° 0.1 mm 15 m/s 740 mmHg 67%
    22:00 +3°C° 0.1 mm 14 m/s 740 mmHg 66%
    23:00 +3°C° 0.1 mm 13 m/s 740 mmHg 65%

    Mâine, 12 Decembrie, Joi

    Timp Temperatura Precipitaţii Vânt Presiune Umiditate
    00:00 +3°C° 0.1 mm 12 m/s 740 mmHg 63%
    01:00 +3°C° 0.2 mm 11 m/s 739 mmHg 67%
    02:00 +2°C° 0.2 mm 9 m/s 739 mmHg 70%
    03:00 +2°C° 0.2 mm 8 m/s 739 mmHg 73%
    04:00 +3°C° 0.2 mm 7 m/s 738 mmHg 76%
    05:00 +3°C° 0.2 mm 6 m/s 737 mmHg 79%
    06:00 +3°C° 0.2 mm 5 m/s 736 mmHg 82%
    07:00 +3°C° 0.4 mm 5 m/s 736 mmHg 86%
    08:00 +3°C° 0.4 mm 5 m/s 735 mmHg 91%
    09:00 +3°C° 0.4 mm 6 m/s 734 mmHg 95%
    10:00 +3°C° 0.6 mm 7 m/s 733 mmHg 92%
    11:00 +2°C° 0.6 mm 8 m/s 732 mmHg 88%
    12:00 +2°C° 0.6 mm 9 m/s 731 mmHg 85%
    13:00 +2°C° 0.2 mm 9 m/s 730 mmHg 86%
    14:00 +2°C° 0.2 mm 9 m/s 729 mmHg 88%
    15:00 +1°C° 0.2 mm 9 m/s 728 mmHg 89%
    16:00 +1°C° 0.8 mm 10 m/s 728 mmHg 89%
    17:00 +1°C° 0.8 mm 10 m/s 727 mmHg 89%
    18:00 +2°C° 0.8 mm 11 m/s 726 mmHg 90%
    19:00 +1°C° 0.1 mm 11 m/s 726 mmHg 89%
    20:00 +1°C° 0.1 mm 11 m/s 726 mmHg 88%
    21:00 +1°C° 0.1 mm 11 m/s 726 mmHg 87%
    22:00 +1°C° 0 mm 11 m/s 726 mmHg 87%
    23:00 +1°C° 0 mm 11 m/s 726 mmHg 87%

    Poimâine, 13 Decembrie, Vineri

    Timp Temperatura Precipitaţii Vânt Presiune Umiditate
    00:00 +1°C° 0 mm 11 m/s 726 mmHg 87%
    01:00 +2°C° 0 mm 11 m/s 727 mmHg 87%
    02:00 +2°C° 0 mm 12 m/s 727 mmHg 87%
    03:00 +3°C° 0 mm 13 m/s 728 mmHg 86%
    04:00 +3°C° 0.1 mm 13 m/s 729 mmHg 84%
    05:00 +3°C° 0.1 mm 12 m/s 730 mmHg 81%
    06:00 +3°C° 0.1 mm 12 m/s 731 mmHg 78%
    07:00 +3°C° 0 mm 11 m/s 732 mmHg 77%
    08:00 +3°C° 0 mm 11 m/s 732 mmHg 77%
    09:00 +3°C° 0 mm 10 m/s 733 mmHg 76%
    10:00 +3°C° 0 mm 9 m/s 734 mmHg 74%
    11:00 +2°C° 0 mm 8 m/s 734 mmHg 72%
    12:00 +3°C° 0 mm 7 m/s 734 mmHg 70%
    13:00 +3°C° 0 mm 7 m/s 734 mmHg 70%
    14:00 +3°C° 0 mm 6 m/s 734 mmHg 69%
    15:00 +3°C° 0 mm 6 m/s 734 mmHg 69%
    16:00 +3°C° 0 mm 5 m/s 733 mmHg 71%
    17:00 +4°C° 0 mm 4 m/s 733 mmHg 73%
    18:00 +3°C° 0 mm 3 m/s 732 mmHg 75%
    19:00 +4°C° 0 mm 2 m/s 732 mmHg 75%
    20:00 +4°C° 0 mm 2 m/s 731 mmHg 75%
    21:00 +4°C° 0 mm 1 m/s 731 mmHg 75%
    22:00 +4°C° 0 mm 1 m/s 730 mmHg 75%
    23:00 +4°C° 0 mm 1 m/s 730 mmHg 75%

    14 Decembrie, Sâmbătă

    Timp Temperatura Precipitaţii Vânt Presiune Umiditate
    00:00 +4°C° 0 mm 1 m/s 729 mmHg 75%
    01:00 +4°C° 0.1 mm 1 m/s 729 mmHg 75%
    02:00 +4°C° 0.1 mm 1 m/s 729 mmHg 74%
    03:00 +4°C° 0.1 mm 1 m/s 728 mmHg 74%
    04:00 +3°C° 0.5 mm 2 m/s 728 mmHg 78%
    05:00 +3°C° 0.5 mm 2 m/s 728 mmHg 82%
    06:00 +3°C° 0.5 mm 2 m/s 727 mmHg 86%
    07:00 +2°C° 0.6 mm 2 m/s 727 mmHg 89%
    08:00 +1°C° 0.6 mm 3 m/s 727 mmHg 92%
    09:00 +1°C° 0.6 mm 3 m/s 727 mmHg 95%
    10:00 +1°C° 0.3 mm 3 m/s 727 mmHg 94%
    11:00 0°C° 0.3 mm 4 m/s 727 mmHg 93%
    12:00 +1°C° 0.3 mm 4 m/s 726 mmHg 92%
    13:00 +1°C° 0.4 mm 4 m/s 727 mmHg 88%
    14:00 +1°C° 0.4 mm 4 m/s 727 mmHg 84%
    15:00 +1°C° 0.4 mm 4 m/s 727 mmHg 80%
    16:00 +1°C° 0.3 mm 4 m/s 727 mmHg 83%
    17:00 +1°C° 0.3 mm 4 m/s 727 mmHg 85%
    18:00 0°C° 0.3 mm 4 m/s 727 mmHg 88%
    19:00 +1°C° 0.4 mm 3 m/s 728 mmHg 86%
    20:00 +2°C° 0.4 mm 3 m/s 729 mmHg 83%
    21:00 +3°C° 0.4 mm 2 m/s 730 mmHg 81%
    22:00 0°C° 1.6 mm 5 m/s 730 mmHg 85%
    23:00 -1°C° 1.6 mm 8 m/s 730 mmHg 90%

    15 Decembrie, Duminică

    Timp Temperatura Precipitaţii Vânt Presiune Umiditate
    00:00 -2°C° 1.6 mm 10 m/s 731 mmHg 95%
    01:00 0°C° 0.8 mm 10 m/s 731 mmHg 88%
    02:00 +1°C° 0.8 mm 10 m/s 731 mmHg 81%
    03:00 +2°C° 0.8 mm 10 m/s 731 mmHg 74%
    04:00 +1°C° 0.2 mm 10 m/s 732 mmHg 73%
    05:00 +1°C° 0.2 mm 10 m/s 732 mmHg 72%
    06:00 +1°C° 0.2 mm 11 m/s 732 mmHg 72%
    07:00 +1°C° 0.1 mm 11 m/s 733 mmHg 76%
    08:00 +1°C° 0.1 mm 11 m/s 733 mmHg 80%
    09:00 +2°C° 0.1 mm 11 m/s 734 mmHg 85%
    10:00 +1°C° 0 mm 10 m/s 735 mmHg 79%
    11:00 +1°C° 0 mm 9 m/s 735 mmHg 73%
    12:00 +1°C° 0 mm 8 m/s 736 mmHg 67%
    13:00 +2°C° 0 mm 7 m/s 736 mmHg 70%
    14:00 +2°C° 0 mm 6 m/s 737 mmHg 72%
    15:00 +1°C° 0 mm 6 m/s 737 mmHg 74%
    16:00 +2°C° 0.1 mm 6 m/s 737 mmHg 74%
    17:00 +2°C° 0.1 mm 6 m/s 737 mmHg 74%
    18:00 +2°C° 0.1 mm 6 m/s 738 mmHg 74%
    19:00 +2°C° 0.1 mm 6 m/s 738 mmHg 77%
    20:00 +1°C° 0.1 mm 6 m/s 738 mmHg 80%
    21:00 +1°C° 0.1 mm 6 m/s 739 mmHg 82%
    22:00 +2°C° 0.2 mm 7 m/s 739 mmHg 80%
    23:00 +2°C° 0.2 mm 7 m/s 739 mmHg 78%

    16 Decembrie, Luni

    Timp Temperatura Precipitaţii Vânt Presiune Umiditate
    00:00 +2°C° 0.2 mm 7 m/s 739 mmHg 76%
    01:00 +2°C° 0.2 mm 7 m/s 739 mmHg 80%
    02:00 +2°C° 0.2 mm 6 m/s 739 mmHg 84%
    03:00 +2°C° 0.2 mm 6 m/s 739 mmHg 88%
    04:00 +2°C° 0.1 mm 6 m/s 739 mmHg 87%
    05:00 +2°C° 0.1 mm 6 m/s 739 mmHg 86%
    06:00 +1°C° 0.1 mm 6 m/s 739 mmHg 85%
    07:00 +1°C° 0 mm 6 m/s 739 mmHg 81%
    08:00 0°C° 0 mm 7 m/s 740 mmHg 77%
    09:00 0°C° 0 mm 7 m/s 740 mmHg 74%
    10:00 0°C° 0.1 mm 7 m/s 740 mmHg 72%
    11:00 +2°C° 0.1 mm 7 m/s 740 mmHg 70%
    12:00 +2°C° 0.1 mm 8 m/s 740 mmHg 69%
    13:00 +1°C° 0.4 mm 8 m/s 740 mmHg 71%
    14:00 +1°C° 0.4 mm 8 m/s 740 mmHg 73%
    15:00 +1°C° 0.4 mm 8 m/s 740 mmHg 75%
    16:00 +1°C° 0.3 mm 8 m/s 741 mmHg 75%
    17:00 +1°C° 0.3 mm 8 m/s 741 mmHg 75%
    18:00 +1°C° 0.3 mm 8 m/s 741 mmHg 75%
    19:00 +1°C° 0.1 mm 8 m/s 741 mmHg 75%
    20:00 +1°C° 0.1 mm 8 m/s 741 mmHg 75%
    21:00 +1°C° 0.1 mm 8 m/s 742 mmHg 75%
    22:00 +1°C° 0.2 mm 8 m/s 742 mmHg 76%
    23:00 +1°C° 0.2 mm 8 m/s 742 mmHg 78%
    Arată mai mult